Location: Lecco
(45.8566°N, 9.3977°E)
Time: 08:42:54
(UTC+02:00)

Altair - Pass Details

Date: 22 August 2020
Orbit: 1501 x 1682 km, 47.2° (Epoch: 25 September)

Event Time Altitude Azimuth Distance (km) Brightness Sun altitude
Enters shadow 21:34:57 - 165° (SSE) 4,905 9.7 -13.0°
Rises 21:34:58 0° 165° (SSE) 4,902 - -13.0°
Reaches altitude 10° 21:42:25 10° 130° (SE) 3,885 - -14.1°
Maximum altitude 21:43:51 10° 121° (ESE) 3,846 - -14.3°
Drops below altitude 10° 21:45:18 10° 112° (ESE) 3,869 - -14.5°
Exits shadow 21:52:26 - 77° (ENE) 4,790 9.7 -15.5°
Sets 21:52:32 0° 77° (ENE) 4,809 9.7 -15.5°
